AAY4951 KMSO-KOGD

Flight info

Callsign AAY4951
Flight time 1h 4m
Altitude 37000
Route CARTR WLKRR1
Aircraft A320/M-SDE3FGHIRWY/LB1

Departure

Time 2026-04-17 04:15
Airport Missoula Montana Airport (KMSO)

Arrival

Time 2026-04-17 05:19
Airport Ogden Hinckley Airport (KOGD)
Time Latitude Longitude Altitude Speed Heading
2026-04-17 03:55 46.91883 -114.08518 3208 ft 0 kts 113°
2026-04-17 04:02 46.91889 -114.08539 3188 ft 4 kts 113°
2026-04-17 04:02 46.91900 -114.08575 3183 ft 4 kts 113°
2026-04-17 04:02 46.91911 -114.08611 3202 ft 4 kts 115°
2026-04-17 04:02 46.91923 -114.08646 3209 ft 4 kts 129°
2026-04-17 04:03 46.91939 -114.08664 3202 ft 3 kts 210°
2026-04-17 04:03 46.91948 -114.08655 3205 ft 4 kts 220°
2026-04-17 04:03 46.91958 -114.08643 3203 ft 0 kts 220°
2026-04-17 04:06 46.91958 -114.08642 3208 ft 0 kts 220°
2026-04-17 04:08 46.91933 -114.08673 3205 ft 11 kts 220°
2026-04-17 04:09 46.91926 -114.08773 3208 ft 11 kts 300°
2026-04-17 04:09 46.91979 -114.08865 3208 ft 12 kts 311°
2026-04-17 04:09 46.92037 -114.08967 3201 ft 14 kts 310°
2026-04-17 04:09 46.92091 -114.09097 3206 ft 14 kts 253°
2026-04-17 04:10 46.92017 -114.09188 3208 ft 15 kts 214°
2026-04-17 04:10 46.91931 -114.09280 3204 ft 16 kts 229°
2026-04-17 04:10 46.91971 -114.09409 3204 ft 15 kts 311°
2026-04-17 04:10 46.92042 -114.09530 3205 ft 16 kts 311°
2026-04-17 04:11 46.92117 -114.09657 3200 ft 17 kts 310°
2026-04-17 04:11 46.92195 -114.09791 3208 ft 17 kts 310°
2026-04-17 04:11 46.92274 -114.09926 3206 ft 18 kts 310°
2026-04-17 04:11 46.92357 -114.10067 3205 ft 19 kts 310°
2026-04-17 04:12 46.92440 -114.10209 3208 ft 16 kts 310°
2026-04-17 04:12 46.92508 -114.10326 3202 ft 15 kts 309°
2026-04-17 04:12 46.92572 -114.10437 3204 ft 10 kts 306°
2026-04-17 04:12 46.92566 -114.10533 3206 ft 11 kts 225°
2026-04-17 04:13 46.92551 -114.10553 3202 ft 1 kts 221°
2026-04-17 04:13 46.92549 -114.10555 3201 ft 0 kts 221°
2026-04-17 04:13 46.92536 -114.10572 3205 ft 9 kts 221°
2026-04-17 04:13 46.92452 -114.10599 3203 ft 14 kts 152°
2026-04-17 04:14 46.92418 -114.10542 3200 ft 0 kts 130°
2026-04-17 04:14 46.92399 -114.10510 3202 ft 22 kts 131°
2026-04-17 04:14 46.92120 -114.10037 3203 ft 98 kts 130°
2026-04-17 04:15 46.91536 -114.09038 3205 ft 158 kts 130°
2026-04-17 04:15 46.90718 -114.07715 3527 ft 179 kts 136°
2026-04-17 04:15 46.89679 -114.06810 4209 ft 176 kts 179°
2026-04-17 04:15 46.88518 -114.07189 4784 ft 173 kts 203°
2026-04-17 04:16 46.87377 -114.07809 5489 ft 179 kts 193°
2026-04-17 04:16 46.86056 -114.07847 5837 ft 203 kts 178°
2026-04-17 04:16 46.84567 -114.07552 6088 ft 229 kts 175°
2026-04-17 04:16 46.82910 -114.07139 6410 ft 253 kts 174°
2026-04-17 04:17 46.81105 -114.06681 6881 ft 271 kts 174°
2026-04-17 04:17 46.79219 -114.06212 7613 ft 278 kts 174°
2026-04-17 04:17 46.77284 -114.05749 8364 ft 285 kts 174°
2026-04-17 04:17 46.75303 -114.05294 9156 ft 291 kts 175°
2026-04-17 04:18 46.73277 -114.04843 9943 ft 298 kts 175°
2026-04-17 04:18 46.71197 -114.04389 10510 ft 311 kts 175°
2026-04-17 04:18 46.68980 -114.03915 10761 ft 333 kts 175°
2026-04-17 04:18 46.66648 -114.03429 11349 ft 342 kts 175°
2026-04-17 04:19 46.64280 -114.02949 12115 ft 345 kts 175°
2026-04-17 04:19 46.61890 -114.02469 12897 ft 348 kts 175°
2026-04-17 04:19 46.59474 -114.02255 13655 ft 348 kts 186°
2026-04-17 04:19 46.57082 -114.02760 14360 ft 347 kts 198°
2026-04-17 04:20 46.54822 -114.03967 15014 ft 347 kts 209°
2026-04-17 04:20 46.52691 -114.05631 15676 ft 348 kts 211°
2026-04-17 04:20 46.50508 -114.07195 16320 ft 354 kts 204°
2026-04-17 04:20 46.48116 -114.08156 16956 ft 360 kts 192°
2026-04-17 04:21 46.45599 -114.08399 17599 ft 366 kts 182°
2026-04-17 04:21 46.43080 -114.08372 18246 ft 368 kts 182°
2026-04-17 04:21 46.40479 -114.08362 18832 ft 371 kts 182°
2026-04-17 04:21 46.37926 -114.08366 19373 ft 373 kts 183°
2026-04-17 04:22 46.35319 -114.08372 19947 ft 375 kts 183°
2026-04-17 04:22 46.32701 -114.08381 20548 ft 377 kts 183°
2026-04-17 04:22 46.30074 -114.08388 21121 ft 379 kts 183°
2026-04-17 04:22 46.27436 -114.08392 21678 ft 381 kts 182°
2026-04-17 04:23 46.24774 -114.08390 22231 ft 383 kts 183°
2026-04-17 04:23 46.22101 -114.08386 22836 ft 385 kts 182°
2026-04-17 04:23 46.19416 -114.08382 23383 ft 387 kts 182°
2026-04-17 04:23 46.16711 -114.08381 23887 ft 390 kts 182°
2026-04-17 04:24 46.13994 -114.08384 24292 ft 392 kts 182°
2026-04-17 04:24 46.11256 -114.08390 24701 ft 395 kts 182°
2026-04-17 04:24 46.08495 -114.08393 25087 ft 398 kts 182°
2026-04-17 04:24 46.05711 -114.08393 25452 ft 401 kts 182°
2026-04-17 04:25 46.02909 -114.08394 25818 ft 404 kts 183°
2026-04-17 04:25 46.00084 -114.08394 26200 ft 407 kts 183°
2026-04-17 04:25 45.97242 -114.08393 26559 ft 410 kts 183°
2026-04-17 04:25 45.94384 -114.08394 26906 ft 412 kts 183°
2026-04-17 04:26 45.91502 -114.08396 27251 ft 415 kts 183°
2026-04-17 04:26 45.88611 -114.08400 27620 ft 417 kts 184°
2026-04-17 04:26 45.85702 -114.08405 27954 ft 420 kts 184°
2026-04-17 04:26 45.82768 -114.08410 28285 ft 422 kts 184°
2026-04-17 04:27 45.79821 -114.08410 28612 ft 425 kts 184°
2026-04-17 04:27 45.76862 -114.08404 28942 ft 427 kts 184°
2026-04-17 04:27 45.73882 -114.08398 29270 ft 429 kts 184°
2026-04-17 04:27 45.70893 -114.08398 29574 ft 431 kts 184°
2026-04-17 04:28 45.67880 -114.08402 29889 ft 434 kts 184°
2026-04-17 04:28 45.64858 -114.08405 30216 ft 435 kts 184°
2026-04-17 04:28 45.61822 -114.08409 30469 ft 437 kts 184°
2026-04-17 04:28 45.58766 -114.08412 30714 ft 439 kts 184°
2026-04-17 04:29 45.55704 -114.08412 30962 ft 441 kts 184°
2026-04-17 04:29 45.52635 -114.08413 31217 ft 441 kts 185°
2026-04-17 04:29 45.49559 -114.08417 31457 ft 442 kts 184°
2026-04-17 04:29 45.46488 -114.08416 31774 ft 441 kts 184°
2026-04-17 04:30 45.43421 -114.08413 32098 ft 440 kts 185°
2026-04-17 04:30 45.40366 -114.08411 32458 ft 438 kts 185°
2026-04-17 04:30 45.37325 -114.08409 32784 ft 437 kts 185°
2026-04-17 04:30 45.34286 -114.08407 33106 ft 436 kts 185°
2026-04-17 04:31 45.31256 -114.08407 33420 ft 435 kts 185°
2026-04-17 04:31 45.28232 -114.08412 33767 ft 433 kts 185°
2026-04-17 04:31 45.25216 -114.08416 34087 ft 433 kts 185°
2026-04-17 04:31 45.22213 -114.08418 34349 ft 432 kts 185°
2026-04-17 04:32 45.19238 -114.08419 34567 ft 433 kts 185°
2026-04-17 04:32 45.16227 -114.08420 34792 ft 433 kts 185°
2026-04-17 04:32 45.13222 -114.08421 35001 ft 433 kts 185°
2026-04-17 04:32 45.10201 -114.08423 35188 ft 434 kts 185°
2026-04-17 04:33 45.07181 -114.08423 35382 ft 434 kts 185°
2026-04-17 04:33 45.04157 -114.08319 35588 ft 438 kts 179°
2026-04-17 04:33 45.01136 -114.07540 35764 ft 446 kts 169°
2026-04-17 04:33 44.98211 -114.05995 35930 ft 453 kts 161°
2026-04-17 04:34 44.92456 -114.02365 36294 ft 453 kts 161°
2026-04-17 04:34 44.89572 -114.00557 36475 ft 453 kts 161°
2026-04-17 04:34 44.86686 -113.98751 36641 ft 454 kts 161°
2026-04-17 04:35 44.83807 -113.96955 36782 ft 454 kts 162°
2026-04-17 04:35 44.80916 -113.95159 36975 ft 453 kts 162°
2026-04-17 04:35 44.78025 -113.93365 37141 ft 454 kts 162°
2026-04-17 04:35 44.75141 -113.91580 37180 ft 452 kts 162°
2026-04-17 04:36 44.69394 -113.88018 37170 ft 451 kts 162°
2026-04-17 04:36 44.63660 -113.84474 37169 ft 450 kts 162°
2026-04-17 04:37 44.57937 -113.80940 37176 ft 449 kts 162°
2026-04-17 04:37 44.52218 -113.77409 37174 ft 449 kts 162°
2026-04-17 04:38 44.46496 -113.73894 37185 ft 449 kts 162°
2026-04-17 04:38 44.40774 -113.70392 37185 ft 449 kts 162°
2026-04-17 04:39 44.35053 -113.66892 37190 ft 449 kts 163°
2026-04-17 04:39 44.29340 -113.63399 37191 ft 448 kts 163°
2026-04-17 04:40 44.23628 -113.59919 37189 ft 448 kts 163°
2026-04-17 04:40 44.17925 -113.56445 37188 ft 447 kts 163°
2026-04-17 04:41 44.12228 -113.52980 37182 ft 446 kts 163°
2026-04-17 04:41 44.06540 -113.49537 37175 ft 445 kts 163°
2026-04-17 04:42 44.00861 -113.46102 37170 ft 445 kts 163°
2026-04-17 04:42 43.95182 -113.42673 37168 ft 444 kts 163°
2026-04-17 04:43 43.89512 -113.39268 37159 ft 443 kts 163°
2026-04-17 04:43 43.83853 -113.35874 37147 ft 443 kts 163°
2026-04-17 04:44 43.78200 -113.32477 37137 ft 442 kts 164°
2026-04-17 04:44 43.72559 -113.29108 37126 ft 441 kts 164°
2026-04-17 04:45 43.66933 -113.25750 37124 ft 440 kts 164°
2026-04-17 04:45 43.61307 -113.22398 37121 ft 440 kts 164°
2026-04-17 04:46 43.55735 -113.19082 37122 ft 439 kts 164°
2026-04-17 04:46 43.50128 -113.15751 37116 ft 439 kts 164°
2026-04-17 04:47 43.44525 -113.12434 37116 ft 438 kts 165°
2026-04-17 04:47 43.38930 -113.09127 37119 ft 438 kts 165°
2026-04-17 04:48 43.33337 -113.05824 37122 ft 437 kts 165°
2026-04-17 04:48 43.27750 -113.02535 37124 ft 437 kts 165°
2026-04-17 04:49 43.22164 -112.99262 37122 ft 436 kts 165°
2026-04-17 04:49 43.16580 -112.95995 37126 ft 436 kts 165°
2026-04-17 04:50 43.11939 -112.93286 37121 ft 436 kts 165°
2026-04-17 04:50 43.06360 -112.90027 37130 ft 436 kts 165°
2026-04-17 04:51 43.00781 -112.86760 37129 ft 436 kts 165°
2026-04-17 04:51 42.95262 -112.83554 37098 ft 436 kts 165°
2026-04-17 04:52 42.92468 -112.81935 36824 ft 435 kts 165°
2026-04-17 04:52 42.89687 -112.80323 36563 ft 435 kts 165°
2026-04-17 04:52 42.86906 -112.78707 36302 ft 434 kts 165°
2026-04-17 04:52 42.84133 -112.77094 36045 ft 432 kts 165°
2026-04-17 04:53 42.81374 -112.75489 35788 ft 430 kts 166°
2026-04-17 04:53 42.78635 -112.73901 35539 ft 427 kts 166°
2026-04-17 04:53 42.75905 -112.72324 35290 ft 425 kts 166°
2026-04-17 04:55 42.57393 -112.61676 32002 ft 400 kts 166°
2026-04-17 04:55 42.54837 -112.60210 31534 ft 397 kts 166°
2026-04-17 04:55 42.52302 -112.58758 31060 ft 394 kts 166°
2026-04-17 04:56 42.49787 -112.57317 30616 ft 391 kts 166°
2026-04-17 04:56 42.47295 -112.55887 30177 ft 388 kts 166°
2026-04-17 04:56 42.44822 -112.54473 29702 ft 384 kts 166°
2026-04-17 04:56 42.42377 -112.53079 29280 ft 379 kts 166°
2026-04-17 04:57 42.39956 -112.51699 28855 ft 375 kts 166°
2026-04-17 04:57 42.37565 -112.50340 28460 ft 370 kts 166°
2026-04-17 04:57 42.35207 -112.48998 28068 ft 365 kts 166°
2026-04-17 04:57 42.32883 -112.47675 27659 ft 360 kts 166°
2026-04-17 04:58 42.30587 -112.46372 27249 ft 356 kts 166°
2026-04-17 04:58 42.28314 -112.45086 26852 ft 352 kts 166°
2026-04-17 04:58 42.26065 -112.43813 26443 ft 349 kts 166°
2026-04-17 04:58 42.23839 -112.42552 26039 ft 346 kts 166°
2026-04-17 04:59 42.21625 -112.41295 25602 ft 344 kts 166°
2026-04-17 04:59 42.19425 -112.40049 25203 ft 341 kts 166°
2026-04-17 04:59 42.17241 -112.38817 24768 ft 339 kts 166°
2026-04-17 04:59 42.15069 -112.37594 24332 ft 338 kts 166°
2026-04-17 05:00 42.12900 -112.36372 23899 ft 337 kts 166°
2026-04-17 05:00 42.10740 -112.35155 23428 ft 336 kts 166°
2026-04-17 05:00 42.08593 -112.33942 22992 ft 333 kts 166°
2026-04-17 05:00 42.06472 -112.32740 22578 ft 329 kts 166°
2026-04-17 05:01 42.04368 -112.31550 22162 ft 326 kts 166°
2026-04-17 05:01 42.02317 -112.30392 21772 ft 323 kts 166°
2026-04-17 05:01 42.00249 -112.29231 21377 ft 321 kts 166°
2026-04-17 05:01 41.98188 -112.28075 20983 ft 320 kts 166°
2026-04-17 05:02 41.96142 -112.26927 20588 ft 318 kts 166°
2026-04-17 05:02 41.94107 -112.25784 20199 ft 316 kts 166°
2026-04-17 05:02 41.92087 -112.24650 19818 ft 314 kts 166°
2026-04-17 05:02 41.90073 -112.23519 19432 ft 313 kts 166°
2026-04-17 05:03 41.88068 -112.22395 19042 ft 312 kts 166°
2026-04-17 05:03 41.86069 -112.21279 18673 ft 310 kts 166°
2026-04-17 05:03 41.84080 -112.20170 18282 ft 310 kts 166°
2026-04-17 05:03 41.82091 -112.19062 17874 ft 309 kts 166°
2026-04-17 05:04 41.80113 -112.17959 17496 ft 306 kts 164°
2026-04-17 05:04 41.78155 -112.16864 17138 ft 304 kts 166°
2026-04-17 05:04 41.76192 -112.15768 16674 ft 307 kts 166°
2026-04-17 05:04 41.74220 -112.14669 16303 ft 306 kts 166°
2026-04-17 05:05 41.72255 -112.13571 15952 ft 306 kts 166°
2026-04-17 05:05 41.70290 -112.12477 15589 ft 306 kts 166°
2026-04-17 05:05 41.68327 -112.11387 15233 ft 305 kts 166°
2026-04-17 05:05 41.66367 -112.10300 14879 ft 305 kts 165°
2026-04-17 05:06 41.64408 -112.09217 14530 ft 305 kts 165°
2026-04-17 05:06 41.62446 -112.08133 14171 ft 305 kts 165°
2026-04-17 05:06 41.60481 -112.07044 13791 ft 306 kts 165°
2026-04-17 05:06 41.58487 -112.06204 13416 ft 296 kts 177°
2026-04-17 05:07 41.56476 -112.06017 13074 ft 285 kts 190°
2026-04-17 05:07 41.54559 -112.06444 12885 ft 277 kts 202°
2026-04-17 05:07 41.52795 -112.07407 12731 ft 272 kts 214°
2026-04-17 05:07 41.51195 -112.08733 12578 ft 271 kts 217°
2026-04-17 05:08 41.49605 -112.10071 12439 ft 271 kts 216°
2026-04-17 05:08 41.48033 -112.11388 12296 ft 271 kts 216°
2026-04-17 05:08 41.46438 -112.12727 12150 ft 270 kts 216°
2026-04-17 05:08 41.44852 -112.14060 11999 ft 270 kts 216°
2026-04-17 05:09 41.43264 -112.15393 11851 ft 270 kts 216°
2026-04-17 05:09 41.41678 -112.16724 11696 ft 269 kts 216°
2026-04-17 05:09 41.40093 -112.18052 11545 ft 269 kts 216°
2026-04-17 05:09 41.38507 -112.19375 11407 ft 269 kts 216°
2026-04-17 05:10 41.36924 -112.20696 11249 ft 268 kts 216°
2026-04-17 05:10 41.35344 -112.22018 11092 ft 268 kts 216°
2026-04-17 05:10 41.33764 -112.23338 10943 ft 268 kts 216°
2026-04-17 05:10 41.32188 -112.24652 10804 ft 267 kts 216°
2026-04-17 05:11 41.30719 -112.25877 10669 ft 267 kts 216°
2026-04-17 05:11 41.29144 -112.27187 10523 ft 267 kts 216°
2026-04-17 05:11 41.27567 -112.28498 10374 ft 267 kts 216°
2026-04-17 05:11 41.25994 -112.29810 10228 ft 266 kts 216°
2026-04-17 05:12 41.24400 -112.31067 10083 ft 268 kts 208°
2026-04-17 05:12 41.22610 -112.31809 9882 ft 274 kts 194°
2026-04-17 05:12 41.20694 -112.31943 9585 ft 276 kts 186°
2026-04-17 05:12 41.18775 -112.31975 9309 ft 274 kts 186°
2026-04-17 05:13 41.16915 -112.32010 9038 ft 268 kts 186°
2026-04-17 05:13 41.15075 -112.32046 8770 ft 261 kts 185°
2026-04-17 05:13 41.13282 -112.32085 8517 ft 255 kts 186°
2026-04-17 05:13 41.11504 -112.31830 8232 ft 256 kts 167°
2026-04-17 05:14 41.09970 -112.30761 8136 ft 250 kts 151°
2026-04-17 05:14 41.08554 -112.29479 8080 ft 245 kts 151°
2026-04-17 05:14 41.07152 -112.28208 8023 ft 244 kts 151°
2026-04-17 05:14 41.05764 -112.26915 7967 ft 245 kts 144°
2026-04-17 05:15 41.04720 -112.25107 7975 ft 254 kts 116°
2026-04-17 05:15 41.04388 -112.22792 7998 ft 261 kts 88°
2026-04-17 05:15 41.04913 -112.20494 8004 ft 264 kts 56°
2026-04-17 05:15 41.06105 -112.18690 8004 ft 254 kts 42°
2026-04-17 05:16 41.07351 -112.17088 7826 ft 248 kts 42°
2026-04-17 05:16 41.08584 -112.15492 7531 ft 248 kts 43°
2026-04-17 05:16 41.09809 -112.13889 7213 ft 246 kts 43°
2026-04-17 05:16 41.11002 -112.12325 6904 ft 237 kts 43°
2026-04-17 05:17 41.12148 -112.10823 6634 ft 226 kts 44°
2026-04-17 05:17 41.13234 -112.09397 6325 ft 215 kts 44°
2026-04-17 05:17 41.14270 -112.08039 6027 ft 203 kts 44°
2026-04-17 05:17 41.15241 -112.06763 5703 ft 190 kts 44°
2026-04-17 05:18 41.16139 -112.05583 5364 ft 174 kts 43°
2026-04-17 05:18 41.16963 -112.04499 5047 ft 159 kts 41°
2026-04-17 05:18 41.17719 -112.03506 4843 ft 150 kts 41°
2026-04-17 05:18 41.18447 -112.02549 4630 ft 144 kts 39°
2026-04-17 05:19 41.19148 -112.01626 4483 ft 135 kts 41°
2026-04-17 05:19 41.19709 -112.00884 4450 ft 78 kts 45°
2026-04-17 05:19 41.19948 -112.00572 4437 ft 39 kts 46°
2026-04-17 05:19 41.20138 -112.00328 4429 ft 35 kts 45°
2026-04-17 05:20 41.20255 -112.00182 4426 ft 24 kts 46°
2026-04-17 05:20 41.20353 -112.00023 4419 ft 18 kts 79°
2026-04-17 05:20 41.20277 -111.99953 4419 ft 13 kts 194°
2026-04-17 05:20 41.20216 -112.00018 4421 ft 9 kts 223°
2026-04-17 05:21 41.20133 -112.00072 4425 ft 16 kts 205°
2026-04-17 05:21 41.20050 -112.00174 4427 ft 18 kts 226°
2026-04-17 05:21 41.19966 -112.00287 4430 ft 16 kts 225°
2026-04-17 05:21 41.19899 -112.00372 4433 ft 11 kts 223°
2026-04-17 05:22 41.19850 -112.00437 4433 ft 8 kts 225°
2026-04-17 05:22 41.19807 -112.00493 4435 ft 14 kts 225°
2026-04-17 05:22 41.19745 -112.00577 4440 ft 10 kts 225°
2026-04-17 05:22 41.19707 -112.00625 4443 ft 8 kts 225°
2026-04-17 05:23 41.19636 -112.00721 4446 ft 15 kts 223°
2026-04-17 05:23 41.19578 -112.00797 4451 ft 8 kts 226°
2026-04-17 05:23 41.19546 -112.00839 4453 ft 8 kts 224°
2026-04-17 05:23 41.19507 -112.00889 4454 ft 5 kts 225°
2026-04-17 05:24 41.19476 -112.00923 4454 ft 8 kts 208°
2026-04-17 05:24 41.19437 -112.00927 4454 ft 1 kts 155°
2026-04-17 05:24 41.19428 -112.00924 4454 ft 1 kts 192°
2026-04-17 05:24 41.19385 -112.00960 4455 ft 15 kts 223°
2026-04-17 05:25 41.19315 -112.01008 4457 ft 9 kts 233°
2026-04-17 05:25 41.19290 -112.01034 4457 ft 0 kts 214°
2026-04-17 05:25 41.19288 -112.01023 4457 ft 3 kts 88°
2026-04-17 05:25 41.19309 -112.00971 4457 ft 7 kts 89°
2026-04-17 05:26 41.19308 -112.00969 4457 ft 0 kts 91°